Погода в Дуках

Россия / Хабаровский край     51°33′52″N   135°48′43″E
темп.,
°C
ветер,
м/с
пор.,
м/с
влажн.,
%
обл.,
%
осадки,
мм/ч
давл.,
гПа
погр.,
м
17 июня, чт
чт1701:00+18зюз2284100 0.0 100125
04:00+16юз2292100 0.0 100143
07:00+19юз2480100 0.0 1002172
10:00+26ююв1356100 0.0 1001822
13:00+28св3449100 0.0 9991222
16:00+30ю5631100 0.0 9982021
19:00+24ююв3750100 0.0 999218
22:00+18ссв2276100 0.0 100138
18 июня, пт
пт1801:00+15св2293100 0.0 100337
04:00+12св2295100 0.0 100442
07:00+15св3575100 0.0 1005344
10:00+17св4671100 0.0 1005593
13:00+20св6860100 0.0 1004924
16:00+21св6857100 0.0 1004916
19:00+19ссв51162100 0.0 1004695
22:00+14ссв4117435 0.0 1006564
19 июня, сб
сб1901:00+12ссв410830 0.0 1008485
04:00+9ссв359125 0.0 1009170
07:00+12ссв38743 0.0 1010563
10:00+15св4659100 0.0 1010915
13:00+18св5650100 0.0 10091045
16:00+20св4647100 0.0 10081152
19:00+19св4851100 0.0 10081044
22:00+15ссв2563100 0.0 1009161
20 июня, вс
вс2001:00+13ссв2461100 0.0 1010109
04:00+11с2367100 0.0 101078
07:00+12всв116396 0.0 1011154
10:00+17всв2247100 0.0 1010832
13:00+20всв3240100 0.0 10081114
16:00+21в2238100 0.0 10071307
19:00+20вюв11454 0.0 1007647
22:00+13зсз11660 0.0 100810
21 июня, пн
пн2101:00+10зюз22745 0.0 100913
04:00+9зюз228280 0.0 100918
07:00+13зюз236685 0.0 1009139
10:00+20зюз2341100 0.0 1008612
13:00+26вюв012645 0.0 10071548
16:00+26в332765 0.0 10051754
19:00+24всв344322 0.0 1006401
22:00+17ссз115895 0.1 100711